TimeCST,TemperatureF,Dew PointF,Humidity,Sea Level PressureIn,VisibilityMPH,Wind Direction,Wind SpeedMPH,Gust SpeedMPH,PrecipitationIn,Events,Conditions,WindDirDegrees,DateUTC
12:53 AM,73.0,68.0,84,30.02,9.0,SSE,8.1,-,N/A,,Clear,150,2012-12-04 06:53:00
1:53 AM,73.0,69.1,87,30.00,9.0,SSE,10.4,-,N/A,,Clear,150,2012-12-04 07:53:00
2:53 AM,72.0,68.0,87,30.01,9.0,SSE,5.8,-,N/A,,Clear,160,2012-12-04 08:53:00
3:53 AM,71.1,68.0,90,30.01,8.0,SSE,4.6,-,N/A,,Clear,160,2012-12-04 09:53:00
4:53 AM,70.0,66.9,90,30.02,8.0,Calm,Calm,-,N/A,,Clear,0,2012-12-04 10:53:00
5:53 AM,69.1,66.9,93,30.04,4.0,Calm,Calm,-,N/A,,Clear,0,2012-12-04 11:53:00
6:53 AM,68.0,66.0,93,30.07,3.0,East,3.5,-,N/A,,Clear,100,2012-12-04 12:53:00
7:04 AM,68.0,66.2,94,30.07,1.5,ESE,3.5,-,N/A,,Clear,120,2012-12-04 13:04:00
7:10 AM,68.0,66.2,94,30.07,0.5,ESE,3.5,-,N/A,Fog,Fog,120,2012-12-04 13:10:00
7:23 AM,69.8,66.2,88,30.07,0.2,SSE,4.6,-,N/A,Fog,Fog,150,2012-12-04 13:23:00
7:31 AM,69.8,68.0,94,30.07,1.0,SE,4.6,-,N/A,,Mist,140,2012-12-04 13:31:00
7:33 AM,69.8,68.0,94,30.07,2.0,SSE,5.8,-,N/A,,Scattered Clouds,150,2012-12-04 13:33:00
7:49 AM,69.8,68.0,94,30.07,3.0,SSE,5.8,-,N/A,,Partly Cloudy,150,2012-12-04 13:49:00
7:53 AM,70.0,69.1,97,30.07,4.0,SSE,4.6,-,N/A,,Clear,150,2012-12-04 13:53:00
8:53 AM,78.1,71.1,79,30.09,8.0,South,8.1,-,N/A,,Clear,170,2012-12-04 14:53:00
9:53 AM,81.0,70.0,69,30.11,9.0,South,10.4,-,N/A,,Scattered Clouds,180,2012-12-04 15:53:00
10:03 AM,80.6,69.8,70,30.11,9.0,South,11.5,-,N/A,,Mostly Cloudy,190,2012-12-04 16:03:00
10:15 AM,80.6,69.8,70,30.11,9.0,South,8.1,17.3,N/A,,Scattered Clouds,180,2012-12-04 16:15:00
10:50 AM,82.4,69.8,66,30.11,9.0,South,10.4,-,N/A,,Mostly Cloudy,190,2012-12-04 16:50:00
10:53 AM,82.0,69.1,65,30.11,9.0,South,10.4,-,N/A,,Mostly Cloudy,190,2012-12-04 16:53:00
11:11 AM,84.2,68.0,58,30.10,9.0,South,10.4,-,N/A,,Scattered Clouds,170,2012-12-04 17:11:00
11:53 AM,86.0,66.9,53,30.09,10.0,SE,10.4,-,N/A,,Scattered Clouds,140,2012-12-04 17:53:00
12:53 PM,84.0,71.1,65,30.06,9.0,ESE,10.4,-,N/A,,Mostly Cloudy,110,2012-12-04 18:53:00
1:53 PM,82.0,71.1,69,30.05,8.0,East,12.7,-,N/A,,Mostly Cloudy,100,2012-12-04 19:53:00
2:53 PM,81.0,71.1,72,30.03,8.0,East,13.8,-,N/A,,Unknown,100,2012-12-04 20:53:00
3:53 PM,80.1,71.1,74,30.03,9.0,ESE,15.0,-,N/A,,Clear,120,2012-12-04 21:53:00
4:53 PM,79.0,71.1,77,30.03,8.0,SE,12.7,-,N/A,,Partly Cloudy,140,2012-12-04 22:53:00
5:53 PM,77.0,70.0,79,30.06,10.0,SE,10.4,-,N/A,,Clear,140,2012-12-04 23:53:00
6:53 PM,75.9,70.0,82,30.07,10.0,SSE,9.2,-,N/A,,Clear,150,2012-12-05 00:53:00
7:53 PM,75.0,70.0,84,30.10,10.0,SSE,5.8,-,N/A,,Clear,150,2012-12-05 01:53:00
8:53 PM,75.0,69.1,82,30.12,10.0,Calm,Calm,-,N/A,,Partly Cloudy,0,2012-12-05 02:53:00
9:53 PM,72.0,68.0,87,30.12,9.0,Calm,Calm,-,N/A,,Mostly Cloudy,0,2012-12-05 03:53:00
10:53 PM,73.0,69.1,87,30.10,10.0,South,4.6,-,N/A,,Mostly Cloudy,190,2012-12-05 04:53:00
11:53 PM,72.0,68.0,87,30.11,9.0,WSW,3.5,-,N/A,,Clear,250,2012-12-05 05:53:00